Torna al catalogo

COSMOS 374 DEB

AttivoUNKNOWN
NORAD 4668·DEBRIS·🇷🇺 Russia

Lanciato Oct 23, 1970 da Baikonur Cosmodrome

Loading…

Prossimi Passaggi (prossime 24 ore)

TLE

AggiornatoSource: Space-Track

Epoca: Sep 14, 2026, 10:44 UTC

1 04668U 70089L   26257.44746220 -.00000092  00000-0  20138-5 0  9990
2 04668  62.9756  46.5918 0947461 333.3908  22.1267 12.87152806621115

Traccia COSMOS 374 DEB in tempo reale con AllMySat

Download on the App Store